SCP
1 1 1 1 0 0 0 0 0 0 0 0 0 0 0 0 0 0 0 0 0 0 0 0 0 0 -0 -0 -0 -0 -0 -0 0 0 0 0 0 0 0 0 0 0 0
1 1 1 1 0 0 0 0 0 0 0 0 0 0 0 0 0 0 0 0 0 0 0 0 0 0 0 0 -0 -0 -0 -0 -0 0 0 0 0 0 0 0 0 0 0
1 1 1 1 0 0 0 0 0 0 0 0 0 0 0 0 0 0 0 0 0 0 0 0 0 0 0 0 0 0 -0 -0 -0 -0 0 0 0 0 0 0 0 0 0
1 1 1 0 0 0 0 0 0 0 0 0 0 0 0 0 0 0 0 0 0 0 0 0 0 0 0 0 0 0 0 -0 -0 -0 0 0 0 0 0 0 0 0 0
1 1 1 0 0 0 0 0 0 0 0 0 0 0 0 0 0 0 0 0 0 0 0 0 0 0 0 0 0 0 0 -0 -0 -0 0 0 0 0 0 0 0 0 0
1 1 1 0 0 0 0 0 0 0 0 0 0 0 0 0 0 0 0 0 0 0 0 0 0 0 0 0 0 0 0 -0 -0 -0 0 0 0 0 0 0 0 0 0
1 1 1 1 0 0 0 0 0 0 0 0 0 0 0 0 0 0 0 0 0 0 0 0 0 0 0 0 0 0 0 -0 -0 0 0 0 0 0 0 0 0 0 0
2 1 1 1 1 0 0 0 0 0 0 0 0 0 0 0 0 0 0 1 1 1 1 1 1 1 0 0 0 0 0 0 -0 0 0 0 0 0 0 0 0 0 0
2 1 1 1 1 1 1 1 1 1 1 1 1 1 1 1 1 1 1 1 1 1 1 1 1 1 1 1 0 0 0 0 -0 -0 0 1 1 1 0 0 0 0 0
2 1 1 1 1 1 1 1 1 1 1 1 1 1 1 1 1 1 1 1 1 1 1 1 1 1 1 1 1 0 0 0 0 -0 0 1 1 1 1 0 0 0 0
1 1 1 1 1 1 1 1 1 1 1 1 1 1 1 1 1 1 1 1 2 2 1 1 1 1 1 1 1 1 0 0 0 0 0 1 2 2 1 1 1 0 0
1 1 1 2 2 1 1 2 1 1 1 1 1 1 1 1 1 1 1 2 2 2 2 2 2 1 1 1 1 1 1 0 0 0 1 1 2 2 2 1 1 1 1
2 2 2 2 2 2 2 2 2 1 2 2 2 2 2 2 1 1 1 2 2 2 2 2 2 2 1 1 1 1 1 0 0 0 1 2 3 3 2 1 1 1 1
4 3 3 3 3 2 2 2 2 2 2 2 2 2 2 2 2 1 1 2 2 2 2 2 2 2 1 1 1 1 1 1 0 0 1 2 3 3 2 2 1 1 1
4 4 3 3 3 2 2 2 2 2 2 2 2 2 2 2 2 2 2 2 2 2 2 2 2 1 1 1 1 1 1 1 1 1 1 2 2 2 2 2 1 1 1
4 3 3 2 2 2 2 2 1 1 1 1 2 2 2 2 2 2 2 2 2 2 2 1 1 1 1 1 1 1 1 1 1 1 1 1 1 2 2 1 1 1 1
2 2 2 2 1 1 1 1 1 1 1 1 1 1 1 1 2 2 1 1 1 1 1 1 1 1 1 1 1 1 1 1 1 1 1 1 1 1 1 1 1 1 1
2 2 2 1 1 1 1 1 1 1 1 1 1 1 1 1 1 1 1 1 1 1 1 1 1 1 1 1 1 1 1 1 1 1 1 1 1 1 1 1 1 1 1
1 1 1 1 1 1 1 1 1 1 1 1 1 1 1 1 1 1 1 1 1 1 1 1 1 1 1 1 1 1 1 1 1 1 1 1 1 1 1 1 1 1 1
1 1 1 1 1 1 1 0 0 1 1 1 1 1 1 1 1 1 1 1 1 0 0 0 0 0 0 0 0 0 1 1 1 1 1 1 1 0 0 1 1 1 1
0 0 1 1 1 1 0 0 0 0 0 1 1 1 1 1 1 1 1 1 0 0 0 0 0 0 0 0 0 0 0 1 1 1 1 0 0 0 0 1 1 1 1
0 0 0 1 1 1 1 0 0 0 0 0 1 1 1 1 0 1 1 1 0 0 0 0 0 0 0 0 0 0 0 0 0 0 0 0 0 0 0 1 1 1 1
0 0 0 1 1 1 0 0 0 0 0 0 0 0 0 0 0 0 0 1 0 0 0 0 0 0 0 0 0 0 0 0 0 0 0 0 0 0 0 0 0 1 0
0 0 0 0 0 0 0 0 0 0 0 0 0 0 0 0 0 0 0 0 0 0 0 0 0 0 0 0 0 0 0 0 0 0 0 0 0 0 0 0 0 0 0
0 0 0 0 0 0 0 0 0 0 0 0 0 0 0 0 0 0 0 0 0 0 0 0 0 0 0 0 0 0 0 0 0 0 0 0 0 0 0 0 0 0 0
0 0 0 0 0 0 0 0 0 0 0 0 0 0 0 0 0 0 0 0 0 0 0 0 0 0 0 0 0 0 0 0 0 0 0 0 0 0 0 0 0 0 0
Wind_Speed
18 19 18 17 15 14 12 12 12 12 12 11 10 10 10 10 9 9 9 8 8 9 9 8 8 8 7 8 8 9 9 9 10 11 12 13 12 11 10 9 11 13 15
21 19 18 17 16 14 13 12 12 12 12 11 11 10 10 10 9 9 8 8 7 7 8 8 8 8 8 8 8 8 8 7 7 8 10 11 11 10 10 10 13 11 14
21 19 18 16 16 15 13 12 12 12 12 12 11 11 10 10 10 9 9 8 7 7 7 8 9 9 8 8 8 7 7 6 5 6 7 7 9 10 11 14 15 14 14
20 17 16 17 15 14 13 12 11 11 11 11 11 10 10 10 9 9 9 8 7 7 7 8 8 9 9 8 8 7 6 5 5 5 5 5 8 11 10 11 12 13 12
18 16 17 17 16 14 13 12 11 11 10 10 10 10 9 9 9 9 8 8 8 7 7 8 8 9 9 9 8 7 6 5 5 7 3 6 8 10 10 10 10 11 11
18 17 17 17 16 14 13 12 11 10 10 9 9 9 9 9 8 8 9 8 8 8 8 8 9 9 9 9 8 7 7 7 7 8 5 8 9 11 11 10 9 10 10
19 17 17 16 15 14 13 12 11 10 10 9 9 9 8 8 8 9 9 9 9 9 9 9 9 9 9 8 8 8 7 8 8 7 4 9 10 13 12 10 9 9 9
20 18 15 16 15 13 12 11 11 10 10 9 9 9 9 9 9 9 10 10 10 9 9 10 10 9 9 9 8 8 8 9 9 9 5 10 15 15 13 11 10 10 9
21 18 14 14 13 12 12 12 11 11 11 10 10 10 10 10 10 10 10 11 11 10 10 10 11 10 10 9 9 9 9 10 9 8 5 9 17 17 15 13 11 11 11
18 17 15 14 13 12 12 13 13 13 12 11 11 11 12 12 12 12 11 12 12 12 12 12 11 11 11 10 11 11 11 9 9 10 6 10 21 19 17 15 13 12 12
11 11 11 12 12 11 12 13 13 12 11 11 10 12 11 9 11 11 15 15 16 15 14 14 13 13 12 12 13 13 11 7 10 8 6 13 22 20 19 16 14 14 14
6 7 6 7 6 3 3 9 8 9 9 10 8 10 9 8 8 10 14 20 20 19 17 16 15 14 12 9 13 15 8 10 10 8 6 18 20 20 19 17 15 14 15
8 9 8 8 8 8 5 2 1 3 4 9 9 7 6 6 6 7 4 9 12 15 11 12 13 10 10 9 7 10 10 10 8 8 7 21 21 20 19 18 16 14 15
11 11 12 11 10 9 8 6 4 4 2 1 2 4 3 3 4 4 4 3 6 6 8 8 8 11 11 11 11 10 11 8 7 5 7 19 20 20 19 18 16 15 15
13 12 11 11 10 8 6 5 6 5 4 4 2 1 2 3 4 5 5 5 6 6 7 7 7 9 10 10 9 9 9 10 8 5 4 15 17 18 18 18 17 17 16
11 11 9 9 8 7 5 4 4 5 3 4 2 3 3 3 4 5 6 6 7 6 5 6 7 7 7 7 8 7 7 7 6 5 4 10 16 17 18 18 18 18 18
9 9 8 6 7 6 5 6 5 5 5 4 3 4 4 4 5 5 6 6 6 6 6 5 6 5 6 6 7 7 6 6 6 6 5 5 8 16 18 19 19 19 19
8 7 7 8 8 6 5 4 4 4 4 4 3 3 3 4 5 5 5 6 5 4 4 5 6 6 6 6 5 6 6 5 6 6 5 6 5 8 14 20 20 20 20
7 5 5 6 7 7 6 5 5 4 3 3 3 2 3 4 4 4 4 4 3 3 4 6 5 5 7 7 7 7 6 6 6 8 7 8 8 8 8 15 21 20 21
6 5 5 5 5 6 5 5 4 5 4 4 3 1 3 4 4 3 3 3 2 2 3 4 5 5 5 5 8 8 7 7 6 7 8 9 9 11 11 12 12 14 20
4 4 3 4 4 4 4 6 6 5 5 5 3 2 3 4 4 3 3 2 2 2 2 3 3 4 4 4 4 5 5 7 8 7 7 7 10 12 12 11 9 8 10
4 3 3 5 6 6 5 6 5 6 6 5 3 3 3 4 4 5 3 3 3 2 3 2 2 2 2 3 3 3 3 4 6 9 8 8 9 9 10 12 11 10 8
4 4 5 4 5 6 7 6 7 6 6 5 5 4 3 5 5 4 4 3 3 3 3 3 2 2 2 2 3 3 2 3 3 5 8 7 7 5 5 6 10 11 10
6 5 4 4 4 5 6 7 10 9 8 8 6 6 7 7 6 4 3 3 3 3 3 4 4 2 2 3 3 3 4 1 2 0 3 5 6 5 5 5 7 8 8
6 6 4 3 3 4 5 7 8 8 8 8 8 9 8 7 7 5 2 1 3 3 3 3 3 3 2 3 3 3 4 4 4 2 2 3 4 5 4 3 2 4 6
5 5 5 4 4 4 5 6 7 8 8 10 10 10 7 5 4 5 3 0 2 3 3 3 3 4 4 5 4 3 3 4 4 3 3 3 5 5 6 4 3 3 3
Wind_Direction
120 130 135 131 127 124 123 129 138 142 141 139 136 132 129 125 121 118 115 114 115 117 118 121 124 117 104 91 84 83 84 84 85 85 86 86 87 86 83 91 112 97 102
123 130 136 133 132 129 127 128 136 144 147 145 142 142 140 138 136 134 133 132 132 131 129 128 130 126 118 107 99 98 96 98 101 106 109 101 91 83 71 77 97 107 107
122 131 137 137 137 135 132 131 135 143 149 150 148 147 147 146 146 147 147 148 149 146 141 138 135 132 128 121 116 114 115 121 130 142 157 130 108 91 83 90 102 110 110
126 138 138 139 139 139 137 137 139 143 147 150 151 151 151 152 153 156 158 161 164 158 153 149 145 142 137 134 133 134 139 153 168 190 215 150 123 108 100 103 110 113 114
129 132 132 143 142 143 143 144 145 145 147 150 154 157 159 161 164 167 168 172 175 172 168 164 158 154 151 149 151 154 163 186 202 230 230 98 106 126 118 113 117 120 122
129 130 138 144 145 147 150 152 153 153 154 157 161 166 170 173 176 178 178 182 184 184 180 174 166 164 164 163 165 171 185 211 228 229 202 134 126 140 134 129 125 124 128
133 130 140 146 147 151 155 158 161 163 165 169 173 177 182 186 190 193 192 193 194 192 191 181 174 172 173 177 181 186 203 227 247 258 178 134 138 148 148 146 141 137 135
127 130 137 146 151 156 161 165 169 173 176 180 184 187 192 197 201 205 205 203 202 202 193 186 184 182 185 189 196 202 214 239 238 252 183 139 149 155 157 159 159 157 154
125 130 143 150 156 163 170 175 179 184 188 191 194 196 201 206 210 212 211 209 208 207 199 193 193 195 197 201 208 215 224 239 272 280 235 145 155 158 161 169 174 173 170
125 136 149 158 159 170 178 185 188 192 196 200 204 206 208 213 217 218 216 211 210 208 205 204 205 207 207 209 215 220 226 241 252 262 258 157 159 161 164 174 184 186 183
115 135 152 152 159 180 182 180 188 198 204 207 213 218 219 222 220 216 221 213 209 210 210 212 214 214 214 216 218 220 222 231 236 240 254 165 164 165 168 176 188 195 194
112 102 93 109 133 170 179 152 184 197 196 205 213 206 211 227 239 234 212 213 211 211 212 215 218 218 216 219 216 214 216 222 244 237 217 167 168 168 172 178 188 198 202
92 66 61 57 53 35 29 75 224 211 186 199 219 216 212 226 242 255 237 207 211 212 213 214 216 218 217 218 218 196 211 223 223 236 195 172 171 173 177 181 189 198 204
65 56 49 48 44 34 22 1 346 354 359 311 204 218 227 241 257 265 268 234 207 210 212 216 208 212 221 221 221 205 202 218 234 229 183 176 174 177 181 185 191 199 204
55 50 46 43 42 28 15 351 353 335 325 317 321 261 252 253 258 264 266 257 241 231 221 221 224 218 219 226 226 215 205 212 229 238 173 179 181 183 185 189 195 203 207
49 42 35 39 40 25 3 349 325 312 309 310 328 337 316 286 272 268 267 263 255 246 241 227 231 238 231 227 228 230 222 221 225 230 192 191 192 192 192 194 199 206 210
52 42 24 41 41 22 357 344 325 315 325 332 339 329 316 302 296 286 275 267 258 252 253 248 242 243 244 235 228 234 233 231 233 228 229 212 201 203 202 201 203 206 210
58 51 36 30 24 4 359 338 319 327 330 319 314 317 331 331 317 299 280 273 266 257 249 248 242 242 242 241 234 231 233 227 226 224 227 239 231 216 212 212 207 206 209
68 54 47 43 23 354 349 334 328 323 318 305 307 326 339 324 314 308 300 291 283 264 252 252 243 235 238 238 237 230 229 227 216 219 214 222 233 235 219 215 210 206 210
80 63 40 34 29 350 353 338 341 332 334 321 316 347 337 315 311 302 291 288 287 280 267 255 252 238 235 234 241 238 221 217 210 212 214 215 220 226 224 214 205 208 211
85 69 53 25 23 350 2 339 326 325 329 315 307 2 343 327 325 299 300 296 263 254 266 278 261 246 236 229 236 249 239 219 209 208 209 213 217 220 219 202 189 192 204
76 48 31 27 11 356 360 319 307 328 318 302 326 344 336 339 326 313 298 286 264 254 263 277 267 238 239 223 217 227 232 224 217 210 201 206 214 213 212 193 182 188 193
36 24 29 30 17 11 351 330 339 329 314 320 333 321 345 338 315 308 303 293 280 260 252 244 247 247 252 266 234 226 234 235 219 200 198 199 198 206 207 190 184 184 192
10 8 27 31 35 15 355 340 334 322 321 328 327 327 332 319 301 292 298 311 296 279 261 242 223 212 244 266 281 263 265 286 291 278 197 191 184 194 211 203 192 177 181
359 355 357 14 23 7 351 334 329 323 326 322 322 312 306 296 285 282 276 317 320 303 292 276 265 229 227 248 260 274 273 257 239 230 210 188 183 181 199 202 183 164 173
352 348 347 357 1 359 344 327 318 320 320 314 303 295 297 298 305 312 312 35 322 328 325 305 287 258 235 247 258 264 268 266 247 222 210 196 188 185 176 176 182 165 167